Location: Mahannah Oil Field
(37.4664°N, 96.6003°W)
Time: 15:23:34
(UTC+00:00)

Vanguard 1 Rocket - Visible Passes

Search period start: 25 January 2021 00:00
Search period end: 04 February 2021 00:00
Orbit: 655 x 4222 km, 34.3° (Epoch: 24 January)

Date Brightness Start Highest point End Pass type
(mag) Time Alt. Az. Time Alt. Az. Time Alt. Az.
25 Jan 10.3 00:10:21 10° WSW 00:14:05 16° SSW 00:19:01 10° SSE visible
30 Jan 11.6 12:09:56 10° S 12:15:58 13° SSE 12:20:49 10° SE visible
01 Feb 11.3 12:08:19 10° S 12:19:08 20° SSE 12:26:37 10° ESE visible
02 Feb 11.6 10:58:58 10° S 11:06:14 13° SSE 11:12:08 10° ESE visible
03 Feb 11.0 12:08:11 10° SSW 12:22:14 27° SSE 12:31:03 10° E visible
